Meridian, MS

3:59 AM CDT on March 23, 2017 (GMT -0500)
Key

Weather History for KMEI - January, 2014

Change the Weather History Date:

Monday, January 20, 2014

  Actual Average Record
Temperature  
Mean Temperature 45 °F 45 °F  
Max Temperature 65 °F 57 °F 81 °F (1982)
Min Temperature 25 °F 33 °F 6 °F (1985)
Degree Days  
Heating Degree Days 20 20  
Month to date heating degree days 487 411  
Since 1 July heating degree days 1532 1419  
Cooling Degree Days 0 0  
Month to date cooling degree days 0 0  
Year to date cooling degree days 0 0  
Moisture  
Dew Point 29 °F    
Average Humidity 58    
Maximum Humidity 92    
Minimum Humidity 24    
Precipitation  
Precipitation 0.00 in 0.18 in 3.44 in (1979)
Month to date precipitation 2.22 3.09  
Year to date precipitation 2.22 3.09  
Sea Level Pressure  
Sea Level Pressure 30.02 in    
Wind  
Wind Speed 6 mph (SSW)    
Max Wind Speed 14 mph    
Max Gust Speed 22 mph    
Visibility 10 miles    
Events      
T = Trace of Precipitation, MM = Missing Value Source: NWS Daily Summary

Daily Weather History Graph

Daily Weather History Graph

Search for Another Location

Airport or City:

Trip Planner

Search our weather history database for the weather conditions in past years. The results will help you decide how hot, cold, wet, or windy it might be!

Date:

Astronomy

Jan. 20, 2014 Rise Set
Actual Time 6:55 AM CST 5:17 PM CST
Civil Twilight 6:28 AM CST 5:43 PM CST
Nautical Twilight 5:58 AM CST 6:13 PM CST
Astronomical Twilight 5:29 AM CST 6:42 PM CST
Moon 9:33 PM CST (1/20) 9:11 AM CST (1/20)
Length of Visible Light 11h 14m
Length of Day
10h 22m
Waning Gibbous, 82% of the Moon is Illuminated
Jan 20
Waning Gibbous
Jan 23
Last Quarter
Jan 30
New
Feb 6
First Quarter
Feb 14
Full

Hourly Weather History & Observations

Time (CST) Temp. Windchill Dew Point Humidity Pressure Visibility Wind Dir Wind Speed Gust Speed Precip Events Conditions
12:58 AM 28.0 °F 24.2 °F 26.1 °F 92% 30.12 in 10.0 mi SSW 3.5 mph - N/A   Clear
1:58 AM 28.0 °F 20.8 °F 26.1 °F 92% 30.10 in 10.0 mi South 6.9 mph - N/A   Clear
2:58 AM 28.0 °F - 25.0 °F 88% 30.09 in 10.0 mi Calm Calm - N/A   Clear
3:58 AM 28.0 °F 21.7 °F 26.1 °F 92% 30.08 in 10.0 mi SSW 5.8 mph - N/A   Clear
4:58 AM 27.0 °F - 25.0 °F 92% 30.07 in 10.0 mi Calm Calm - N/A   Clear
5:58 AM 26.1 °F - 24.1 °F 92% 30.07 in 10.0 mi Calm Calm - N/A   Clear
6:58 AM 26.1 °F 20.5 °F 24.1 °F 92% 30.09 in 10.0 mi SSW 4.6 mph - N/A   Clear
7:58 AM 30.0 °F 25.2 °F 28.0 °F 92% 30.10 in 10.0 mi SW 4.6 mph - N/A   Clear
8:58 AM 39.9 °F 35.8 °F 32.0 °F 73% 30.11 in 10.0 mi South 5.8 mph - N/A   Clear
9:58 AM 52.0 °F - 33.1 °F 49% 30.12 in 10.0 mi Variable 4.6 mph - N/A   Clear
10:58 AM 57.9 °F - 30.0 °F 35% 30.09 in 10.0 mi WSW 10.4 mph - N/A   Clear
11:58 AM 63.0 °F - 28.9 °F 28% 30.05 in 10.0 mi WSW 10.4 mph - N/A   Clear
12:58 PM 64.0 °F - 28.0 °F 26% 30.01 in 10.0 mi WSW 11.5 mph 17.3 mph N/A   Clear
1:58 PM 64.0 °F - 28.0 °F 26% 29.98 in 10.0 mi SW 8.1 mph 17.3 mph N/A   Clear
2:58 PM 64.9 °F - 27.0 °F 24% 29.96 in 10.0 mi Variable 6.9 mph - N/A   Clear
3:58 PM 64.9 °F - 28.0 °F 25% 29.95 in 10.0 mi SSW 9.2 mph - N/A   Clear
4:58 PM 57.9 °F - 28.0 °F 32% 29.95 in 10.0 mi SSW 6.9 mph - N/A   Clear
5:58 PM 46.0 °F 43.9 °F 30.9 °F 56% 29.96 in 10.0 mi South 4.6 mph - N/A   Clear
6:58 PM 43.0 °F 39.5 °F 32.0 °F 65% 29.96 in 10.0 mi SSW 5.8 mph - N/A   Clear
7:58 PM 39.9 °F 34.5 °F 33.1 °F 77% 29.96 in 10.0 mi SSW 8.1 mph - N/A   Clear
8:58 PM 42.1 °F 38.4 °F 32.0 °F 67% 29.97 in 10.0 mi SSW 5.8 mph - N/A   Clear
9:58 PM 37.0 °F 31.0 °F 33.1 °F 86% 29.96 in 10.0 mi SSW 8.1 mph - N/A   Clear
10:58 PM 42.1 °F 39.2 °F 32.0 °F 67% 29.96 in 10.0 mi SSW 4.6 mph - N/A   Partly Cloudy
11:58 PM 43.0 °F 38.8 °F 34.0 °F 71% 29.94 in 10.0 mi South 6.9 mph - N/A   Mostly Cloudy